GFSFLT1_500_rhum_108.txt.gz
RH
71 69 73 63 50 61 47 34 47 45 37 32 32 34 30 30 27 24 25 25 23 23 23 27 27 25 11 6 8 7 21 79
89 84 85 74 56 63 53 42 38 44 39 37 36 35 34 30 25 24 28 28 26 26 23 25 29 30 14 7 7 8 15 60
99 99 99 89 63 59 60 47 41 39 37 36 36 38 33 30 28 32 32 31 28 28 25 26 28 33 17 6 6 10 19 37
96 95 82 74 62 55 58 46 45 36 30 28 29 32 34 33 36 42 37 30 28 29 27 30 31 35 21 7 8 10 35 51
91 80 73 70 62 57 52 51 47 37 28 44 32 31 31 32 31 34 37 33 33 31 31 34 33 37 24 7 7 10 19 52
82 69 71 61 58 58 57 54 49 40 42 77 63 56 40 33 25 28 37 38 37 31 32 37 37 40 27 8 7 10 19 59
67 80 71 52 50 54 57 56 53 49 53 46 69 81 50 42 31 26 33 35 38 31 32 36 30 38 30 8 7 10 49 86
76 71 82 69 55 57 57 57 60 56 54 50 43 59 50 45 39 33 32 34 36 33 30 35 25 35 32 9 7 11 68 97
50 86 89 90 77 62 64 76 70 58 52 55 48 41 53 32 31 26 31 35 35 33 35 34 23 34 33 10 7 19 93 97
100 100 100 92 76 83 90 81 76 71 71 57 45 48 54 50 49 51 26 36 39 37 38 32 27 31 35 12 8 12 66 97
98 96 98 100 96 95 88 80 82 71 65 59 54 55 65 74 61 66 30 36 40 35 39 36 34 29 37 15 7 10 34 95
96 97 98 100 90 78 75 72 78 83 86 78 74 79 72 65 76 74 51 57 44 37 51 44 42 33 39 21 7 10 12 52
88 87 80 67 58 72 72 71 75 79 86 88 94 89 72 71 77 77 94 96 77 45 48 52 51 53 44 30 10 9 10 44
66 72 66 50 40 35 34 42 45 64 73 63 86 94 73 64 71 84 95 97 73 39 49 57 64 64 52 37 14 9 14 15
30 28 27 25 26 34 30 24 34 38 27 56 76 47 27 40 54 75 88 87 59 44 57 58 72 70 62 45 21 11 13 19
33 30 26 30 28 23 20 24 25 23 22 19 20 23 30 33 46 51 63 47 38 44 44 57 81 85 75 58 36 15 12 15
32 30 33 32 35 33 25 20 17 18 21 21 25 30 24 24 26 32 39 50 59 62 57 55 84 99 91 75 53 24 14 14
50 49 57 64 58 51 48 41 28 24 25 26 31 42 61 24 28 94 66 97 97 86 72 71 89 100 95 88 73 37 20 17
14 35 55 68 76 79 77 73 67 51 45 43 41 43 55 33 23 41 92 78 48 66 76 95 97 99 95 92 89 74 44 21

GFSFLT1_500_rhum_111.txt.gz
RH
70 64 68 72 63 58 63 67 66 57 60 51 46 40 37 35 36 34 29 28 27 27 26 24 23 24 24 30 31 18 6 6
100 99 86 89 70 64 64 70 59 61 56 53 48 45 47 43 39 37 32 28 26 30 29 26 24 25 23 30 34 21 8 7
100 92 87 77 62 63 58 53 68 63 59 56 50 44 45 42 38 37 34 28 33 34 30 28 26 26 23 28 35 25 9 7
98 96 87 71 64 58 57 50 56 61 60 48 51 44 40 44 43 41 39 36 36 34 31 31 28 28 27 28 34 30 13 6
99 99 86 74 58 55 56 58 56 62 60 51 50 54 41 38 35 33 34 36 38 39 36 35 31 28 28 25 30 33 20 6
17 50 80 70 66 79 73 70 65 63 66 59 52 62 80 47 42 38 43 34 38 43 42 40 35 29 27 19 23 32 22 6
9 38 66 46 52 56 64 75 78 69 70 62 54 57 88 96 66 70 49 42 45 47 47 46 39 31 30 22 23 31 24 6
13 14 47 56 52 66 76 75 77 77 72 81 81 74 68 53 95 78 54 53 50 48 47 46 40 33 30 24 22 32 26 7
33 23 48 58 77 71 59 50 58 73 66 72 84 72 73 64 64 97 80 49 45 42 41 42 38 35 32 29 23 33 28 8
77 69 49 43 57 53 63 58 67 63 65 71 77 75 66 60 56 74 86 70 34 40 39 40 40 40 35 31 22 33 30 9
97 95 98 94 87 72 60 56 60 62 65 86 79 86 73 64 77 60 73 80 74 71 68 38 42 43 37 30 20 30 30 15
68 59 76 96 100 100 90 84 94 85 84 79 76 71 70 92 90 76 83 92 87 89 94 65 37 45 41 35 25 25 27 22
99 98 99 99 78 94 98 95 85 84 90 82 77 73 77 69 65 80 86 96 97 95 96 70 43 48 47 44 36 22 30 23
89 97 93 94 97 98 97 97 89 73 71 68 66 70 80 81 83 89 94 96 95 95 97 96 94 68 48 49 41 29 34 27
100 94 89 71 68 67 65 63 54 44 54 60 72 81 85 89 89 83 90 96 95 96 96 96 97 93 66 47 52 44 38 31
37 35 38 36 30 28 28 33 43 44 29 28 43 45 55 78 91 90 96 76 50 66 87 89 100 87 59 64 68 56 48 39
35 35 32 30 29 29 30 27 22 26 32 33 30 28 28 25 26 34 36 32 44 61 65 85 98 92 65 72 80 68 58 54
45 47 46 39 32 37 44 46 42 27 20 18 21 25 24 26 30 100 45 41 55 96 96 92 59 59 87 87 88 79 68 68
18 28 26 34 50 58 62 59 56 56 48 34 29 23 34 27 33 40 77 25 29 74 92 72 63 93 96 91 93 89 75 74

GFSFLT1_500_rhum_114.txt.gz
RH
40 76 75 75 72 60 61 52 51 58 58 58 53 53 55 48 40 38 37 35 33 31 27 27 28 25 24 23 19 19 25 23
42 98 86 76 69 50 55 57 57 57 58 64 58 50 58 54 49 42 40 39 37 34 29 28 31 28 26 26 23 22 28 27
12 100 95 77 65 57 59 61 59 62 66 64 61 59 53 57 54 47 43 42 41 38 29 30 34 32 27 27 26 24 30 29
8 100 100 81 67 74 66 94 71 67 76 70 68 67 57 51 56 52 49 48 43 38 32 32 37 35 30 29 28 23 30 32
6 65 83 74 70 78 80 93 70 71 69 68 73 74 67 64 56 58 61 57 44 40 38 36 38 40 37 34 30 24 26 31
6 17 93 86 71 79 85 88 78 65 63 69 77 73 93 89 64 59 50 48 38 48 43 40 42 43 40 39 35 27 27 30
7 6 37 89 89 79 79 90 86 49 66 73 78 75 81 94 90 92 82 46 60 63 55 45 46 48 44 43 38 29 24 30
6 6 9 30 95 85 80 86 81 86 84 86 83 86 82 96 94 100 98 89 67 64 61 42 47 53 45 40 47 38 23 26
19 5 5 9 11 39 74 90 95 94 91 86 84 94 96 96 85 72 78 95 98 89 59 48 46 47 38 33 35 29 26 21
39 29 12 5 5 6 13 48 62 76 63 78 84 99 96 97 96 87 84 75 94 93 84 69 47 44 37 32 30 31 28 19
54 44 39 34 18 14 22 31 44 58 71 85 83 83 94 94 97 92 96 91 90 89 94 80 67 50 56 48 32 33 27 22
50 48 53 43 46 37 48 65 84 86 83 77 72 73 88 97 96 97 94 75 66 62 74 73 74 79 79 78 66 33 30 25
76 85 90 58 54 36 29 47 67 64 67 55 66 85 85 82 92 95 99 94 69 71 72 74 72 82 96 95 82 43 39 34
99 100 92 88 98 98 100 87 83 78 47 58 74 84 89 85 81 80 80 92 93 91 91 85 82 88 94 97 93 59 47 43
99 96 91 84 69 90 90 91 88 81 69 89 99 83 78 74 66 65 70 73 83 72 77 85 93 94 95 96 96 93 61 47
98 94 86 88 88 60 50 52 60 72 76 79 85 77 59 55 65 84 89 84 87 87 88 93 98 95 95 99 98 98 83 68
67 59 48 40 40 35 33 34 32 29 31 35 41 46 44 27 33 51 77 89 94 95 90 86 82 83 84 98 96 100 87 66
72 64 63 55 55 61 67 59 52 44 44 34 27 26 31 32 34 32 27 28 30 33 40 45 40 56 73 76 97 99 84 59
49 46 33 29 38 46 54 60 64 68 73 71 59 39 28 24 24 28 27 26 26 83 79 42 75 98 96 97 98 96 81 65

GFSFLT1_500_rhum_117.txt.gz
RH
8 9 9 9 22 59 64 57 56 62 47 50 51 51 52 55 56 48 43 40 37 33 33 33 29 27 26 24 21 20 18 12
6 8 9 10 20 42 51 54 58 61 52 48 57 57 54 53 58 57 52 46 41 37 36 37 33 29 27 28 25 22 21 15
2 7 8 10 21 34 57 53 55 54 58 49 61 69 63 55 54 56 56 50 45 41 43 40 36 31 27 32 31 28 26 20
2 3 8 14 33 34 68 65 52 56 54 58 73 73 75 66 63 58 60 59 52 50 48 43 39 34 29 34 37 32 32 27
6 9 8 9 77 63 79 90 81 80 67 72 76 86 91 94 91 90 72 62 58 52 48 47 43 40 33 37 41 36 34 33
28 12 8 8 55 99 98 100 99 90 94 94 80 97 98 97 96 95 94 78 68 57 48 50 54 50 43 44 47 42 36 36
78 19 10 8 19 100 100 100 100 100 95 96 73 89 97 97 96 96 95 86 86 72 59 71 59 52 51 47 43 43 42 40
100 38 15 16 23 100 100 99 100 100 98 100 84 84 95 100 97 95 95 98 88 87 97 90 65 49 54 42 38 36 40 42
100 63 17 13 65 100 100 100 99 98 99 100 89 85 82 98 96 95 93 99 88 75 95 93 69 85 62 66 51 34 37 38
87 69 38 13 39 98 100 100 100 100 99 96 84 85 93 94 97 92 100 96 87 91 94 98 88 83 71 62 51 42 37 35
60 44 45 19 9 42 85 98 100 99 95 90 79 79 74 95 90 94 97 93 94 91 95 94 98 92 88 80 79 46 40 49
87 56 38 22 15 13 20 32 47 92 95 97 96 86 66 86 81 88 96 98 97 97 97 92 98 98 98 96 92 86 67 67
100 71 47 42 23 12 15 15 16 19 27 28 23 29 45 56 60 93 83 89 95 96 97 97 96 97 96 91 82 79 89 95
70 95 88 72 51 37 33 31 37 28 28 37 54 46 67 90 90 98 100 99 96 90 90 89 89 86 86 79 81 87 86 92
100 100 90 82 65 59 51 49 84 72 62 81 98 95 86 97 98 83 92 98 96 94 92 95 93 92 91 87 84 77 84 90
100 96 100 100 92 91 61 86 73 89 85 71 58 52 59 55 59 76 96 82 79 73 66 71 72 73 77 79 72 77 89 95
100 96 100 100 98 98 99 96 86 72 91 95 84 78 81 83 70 73 79 74 58 60 69 84 90 83 84 80 81 91 98 96
100 100 99 99 98 98 98 82 79 78 67 66 50 39 41 49 56 59 59 44 32 41 67 92 99 95 98 98 95 92 87 97
98 75 51 49 60 61 63 64 64 67 69 69 71 62 50 36 27 27 31 29 26 31 32 36 44 50 56 65 71 71 83 91

GFSFLT1_500_rhum_120.txt.gz
RH
3 3 5 8 12 14 16 38 54 56 57 48 44 37 48 46 44 51 48 42 36 36 33 30 31 32 30 27 26 25 21 19
1 2 3 3 9 12 15 50 60 55 48 44 46 40 50 52 47 54 52 51 43 39 36 33 34 35 35 31 28 26 27 22
5 2 2 2 5 9 12 48 62 67 49 54 59 54 55 59 54 53 54 54 52 48 42 38 38 37 37 36 33 27 31 29
76 13 2 2 3 8 10 37 72 67 67 69 59 63 55 57 58 56 56 53 54 54 51 46 44 42 41 41 39 29 31 34
92 76 10 3 4 8 9 15 66 88 81 70 59 61 57 56 63 65 67 66 64 62 58 56 48 45 45 45 43 34 32 40
44 42 28 6 5 8 8 13 78 100 89 63 58 81 72 69 72 70 77 81 81 67 64 61 54 52 50 54 52 44 38 40
63 65 39 14 7 10 9 13 98 100 95 70 70 84 81 74 83 95 83 93 85 80 70 68 58 63 59 57 58 48 42 40
77 69 60 57 33 13 11 27 100 95 90 76 55 79 96 85 98 100 94 94 96 97 90 85 73 74 63 60 56 46 47 40
94 99 97 96 49 20 27 100 99 96 100 90 100 100 95 96 98 88 89 90 95 94 90 92 97 86 78 83 85 50 48 49
100 83 98 86 62 36 57 98 99 99 94 100 95 100 100 100 96 87 90 92 95 87 91 89 97 98 96 91 91 87 73 64
100 100 75 90 66 70 84 96 98 98 95 97 92 85 85 80 87 91 94 96 95 98 91 99 90 91 90 99 97 92 92 78
94 100 75 66 62 91 97 90 95 69 96 96 96 92 86 95 88 94 96 92 94 95 94 100 97 90 89 98 97 97 97 96
96 84 60 52 34 42 59 98 79 100 94 99 99 98 86 79 74 81 83 83 90 93 98 97 95 95 96 96 96 97 95 96
92 74 57 37 33 13 20 31 81 96 99 97 99 99 97 96 100 91 97 92 63 77 72 90 95 97 96 97 97 97 97 96
96 100 67 50 26 14 12 15 20 29 33 36 33 30 32 40 32 28 23 52 74 70 78 90 79 89 83 73 74 78 84 88
99 100 99 100 56 38 30 11 12 16 17 22 28 35 34 37 60 62 41 50 87 99 97 85 76 78 72 74 75 79 80 83
100 100 100 100 90 67 63 48 33 42 46 52 100 76 47 46 63 93 97 84 72 81 72 64 83 79 69 68 67 71 76 72
100 100 100 100 100 100 100 93 90 98 88 71 91 76 90 91 80 58 56 49 65 76 67 57 81 76 60 58 60 79 91 91
99 95 89 95 97 97 100 99 99 100 99 97 81 81 85 82 69 64 65 73 76 78 77 74 69 60 38 44 67 90 94 96